Regional Weather Roundup
Issued by NWS

Home | Current Version | Previous Version | Graphics & Text | Print | Product List | Glossary On
Versions: 1 2 3 4 5 6 7 8 9 10 11 12 13 14 15 16 17 18 19 20 21 22 23 24 25 26 27 28 29 30 31 32 33 34 35 36 37 38 39 40 41 42 43 44 45 46 47 48 49 50
000
ASUS43 KMKX 231459
RWRWI

WISCONSIN REGIONAL WEATHER ROUNDUP
NATIONAL WEATHER SERVICE MILWAUKEE/SULLIVAN WI
900 AM CST THU NOV 23 2017

NOTE: "FAIR" INDICATES FEW OR NO CLOUDS BELOW 12,000 FEET WITH NO
SIGNIFICANT WEATHER AND/OR OBSTRUCTIONS TO VISIBILITY.

WIZ001-002-006>008-014>016-023>028-231600-
NORTHWEST WISCONSIN

CITY           SKY/WX    TMP DP  RH WIND       PRES   REMARKS
SUPERIOR ARPT  MOSUNNY   22  20  90 SW3       29.93R
ASHLAND        SUNNY     27  19  72 SW6       29.92F WCI  20
HAYWARD        SUNNY     25  19  78 SW5       29.91F WCI  19
SIREN          CLOUDY    22  20  92 CALM      29.92F
CUMBERLAND     SUNNY     21  19  93 CALM      29.92S
RICE LAKE      SUNNY     22  21  94 CALM      29.94F
CHETEK         SUNNY     21  19  91 CALM      29.93S
LADYSMITH      SUNNY     26  21  82 CALM      29.93S
EAU CLAIRE     NOT AVBL
MENOMONIE      CLOUDY    24  20  85 CALM      29.95S
NEW RICHMOND   CLOUDY    22  19  88 CALM      29.94S
OSCEOLA        CLOUDY    20  18  91 CALM      29.96F
$$

WIZ003>005-009-010-017-018-231600-
NORTH CENTRAL WISCONSIN

CITY           SKY/WX    TMP DP  RH WIND       PRES   REMARKS
MANITOWISH WTR SUNNY     24  20  84 SW7       29.88R WCI  16
ARBOR VITAE    SUNNY     27  23  85 W3        29.88R
WOODRUFF       SUNNY     27  23  85 W3        29.88R
RHINELANDER    MOSUNNY   27  20  75 W7        29.89R WCI  19
EAGLE RIVER    SUNNY     25  19  78 SW7       29.86R WCI  17
LAND O LAKES   SUNNY     26  20  80 W3        29.88R
PHILLIPS       CLOUDY    25  19  79 SW3       29.89R
TOMAHAWK       CLOUDY    26  19  77 CALM      29.90R
MEDFORD        SUNNY     24  19  80 SW3       29.90R
MERRILL        MOSUNNY   25  22  88 CALM      29.89F
$$

WIZ029-030-035-036-043>047-231600-
CENTRAL WISCONSIN

CITY           SKY/WX    TMP DP  RH WIND       PRES   REMARKS
WAUSAU         MOSUNNY   26  21  81 SW3       29.89F
MOSINEE        NOT AVBL
MARSHFIELD     SUNNY     28  18  66 SW5       29.90F WCI  23
STEVENS POINT  SUNNY     26  19  77 CALM      29.93F
WAUPACA        SUNNY     31  23  71 CALM      29.96S
WAUTOMA        NOT AVBL
WISC RAPIDS    SUNNY     31  20  63 SW6       29.93F WCI  25
CAMP DOUGLAS   SUNNY     32  18  55 SW6       29.92F WCI  27
$$

WIZ011>013-019>022-031-037>040-048>050-231600-
NORTHEAST WISCONSIN

CITY           SKY/WX    TMP DP  RH WIND       PRES   REMARKS
ANTIGO         CLOUDY    26  20  77 SW6       29.88F WCI  19
SHAWANO        SUNNY     31  24  75 SW3       29.94F
OCONTO         SUNNY     31  21  66 SW6       29.93F WCI  26
STURGEON BAY   CLOUDY    33  22  63 SW9       29.93F WCI  25
GREEN BAY      SUNNY     33  24  69 SW7       29.94F WCI  27
MANITOWOC      NOT AVBL
APPLETON       SUNNY     32  19  59 SW8       29.92F WCI  25
CLINTONVILLE   SUNNY     30  21  69 SW5       29.94F WCI  25
OSHKOSH        SUNNY     33  22  63 S9        29.95F WCI  25
$$

WIZ032>034-041-042-053>061-231600-
SOUTHWEST WISCONSIN

CITY           SKY/WX    TMP DP  RH WIND       PRES   REMARKS
LA CROSSE      SUNNY     33  21  61 S6        29.95F WCI  28
SPARTA         SUNNY     28  20  73 CALM      29.95S
VIROQUA        SUNNY     30  22  72 SW6       29.93S WCI  24
BOSCOBEL       SUNNY     32  20  61 S3        29.97F
PRAIRIE DU CHI SUNNY     31  19  61 CALM      29.97S
PLATTEVILLE    SUNNY     31  23  71 S7        29.97R WCI  25
$$

WIZ056-057-062-063-064-067-068-231600-
SOUTH CENTRAL WISCONSIN

CITY           SKY/WX    TMP DP  RH WIND       PRES   REMARKS
REEDSBURG      SUNNY     32  19  59 SW6       29.94F WCI  26
BARABOO/DELLS  SUNNY     32  19  57 SW5       29.95S WCI  27
LONE ROCK      NOT AVBL
MINERAL POINT  SUNNY     32  23  69 S6        29.94F WCI  26
MADISON        MOSUNNY   33  21  61 SW6       29.95F WCI  28
MIDDLETON      SUNNY     34  21  58 SW6       29.97R WCI  29
WATERTOWN      CLOUDY    33  22  64 S8        29.97S WCI  25
MONROE         SUNNY     32  23  69 S10       29.95F WCI  24
JANESVILLE     SUNNY     36  21  55 SW10      29.97F WCI  28
$$

WIZ051-052-058>065-066-070>072-231600-
SOUTHEAST WISCONSIN

CITY           SKY/WX    TMP DP  RH WIND       PRES   REMARKS
MILWAUKEE      MOSUNNY   36  22  56 SW13      30.00S WCI  27
WAUKESHA       CLOUDY    32  19  59 SW6       29.99S WCI  26
MILWAUKEE/TIMM CLOUDY    34  18  51 SW10G16   30.00S WCI  26
RACINE         MOSUNNY   36  21  54 SW12      30.01F WCI  28
BURLINGTON     SUNNY     36  28  73 SW9       29.99S WCI  29
KENOSHA        MOSUNNY   36  21  54 SW8       30.00F WCI  30
FOND DU LAC    PTSUNNY   33  19  56 SW10      29.95F WCI  25
SHEBOYGAN      CLOUDY    34  22  61 SW8       29.97F WCI  27
WEST BEND      CLOUDY    32  19  59 SW10      29.97F WCI  24
JUNEAU         CLOUDY    32  20  62 S7        29.97F WCI  25
$$

LSZ147-162-231600-
LAKE SUPERIOR

STATION/POSITION TIME  TEMP    WIND        PRES    WAVE
                       AIR SEA DIR/SP/G            HT/PER
                 (UTC) (F)     (DEG/KT/KT) (MB)    (FT/S)
DEVILS ISLAND    1400   29     260/ 17/ 20 1013.5R
SAXON HARBOR     1440   27     200/  4/  7 1013.2R
$$

LMZ867-665-643>646-231600-
LAKE MICHIGAN

STATION/POSITION TIME  TEMP    WIND        PRES    WAVE
                       AIR SEA DIR/SP/G            HT/PER
                 (UTC) (F)     (DEG/KT/KT) (MB)    (FT/S)
N MID LAKE BUOY  1350   34 47  240/ 14/ 17 1014.8F   4/ 6
NORTHPORT PIER   1440   33     240/  6/ 12 1013.2F
KEWAUNEE LAKESHO 1430   33     240/  8/ 13 1013.7F
SHEBOYGAN LAKESH 1400   33     220/ 10/ 11 1015.8F
PORT WASHINGTON  1440   35     220/  4/  7 1016.3F
MILWAUKEE LAKESH 1430   35     230/ 13/ 14   N/A
S MID LAKE BUOY  1350   39 47  240/ 17/ 19 1017.0F   4/ 5
KENOSHA   LAKESH 1400   34     220/  9/ 14 1016.3
$$

TC  - TEMPERATURE IN CELSIUS
VSB - VISIBILITY IN STATUTE MILES
WCI - WIND CHILL INDEX
HX  - HEAT INDEX





USA.gov is the U.S. government's official web portal to all federal, state and local government web resources and services.